Vorticity
8 8 9 11 11 8 5 8 7 -1 3 7 11 10 5 13 12 3 6 2 -3 1 3 2 0 4 5 2 3 1 2 4 1 1 3 5 6 5 6 7 10 11 10 10 9 8 8 9 9 7 6 7 9 11 9 10 11 10 10 10 10 10 10 10 10 10 10 9 11 11 11 11 11 11 9 9 8 9 9 10 11 10 10 9 9 11
7 8 9 9 7 7 4 5 6 4 9 11 12 12 9 12 1 -10 2 3 -4 1 4 -1 -4 0 4 6 9 6 2 4 5 4 6 9 9 8 9 11 14 12 8 8 8 9 9 8 9 8 6 9 12 11 11 13 12 10 11 11 11 10 10 10 9 10 10 10 10 11 11 10 11 11 10 10 9 10 10 9 10 9 10 10 8 10
8 7 8 8 4 5 7 8 8 9 12 12 13 13 12 13 6 0 3 3 5 4 -6 -10 -6 0 4 10 16 13 6 2 2 5 7 9 9 7 8 10 12 9 8 11 10 10 10 8 9 9 9 11 12 11 12 13 11 11 12 11 11 11 11 9 9 9 9 10 10 10 11 10 10 10 10 11 9 10 10 9 10 9 9 9 9 9
8 6 6 7 6 8 8 5 4 5 7 10 10 10 15 15 8 5 1 0 6 0 -10 -7 1 5 6 12 16 13 11 9 7 7 4 5 8 9 10 10 8 7 9 11 11 11 11 10 10 11 13 12 11 10 11 11 9 10 11 11 10 9 10 9 8 9 9 10 10 10 11 10 9 10 10 10 10 9 9 10 10 10 10 9 9 9
8 10 11 9 9 11 10 6 7 9 8 8 8 8 14 16 11 5 1 0 -1 -6 -5 -0 5 8 7 10 10 7 9 11 10 9 7 8 9 9 11 10 10 11 11 9 9 9 9 9 10 12 14 13 11 9 9 10 10 9 9 10 10 9 9 10 9 9 9 9 9 9 10 10 9 9 9 9 9 8 8 9 9 9 9 9 9 9
8 5 9 8 7 7 4 5 8 10 11 10 8 8 8 11 14 10 3 3 1 -1 2 2 2 5 6 8 8 8 11 11 13 15 14 15 16 16 16 13 11 11 12 11 9 9 8 9 9 11 14 13 9 7 8 10 11 10 9 9 10 10 9 10 10 9 10 10 10 10 10 10 9 8 9 8 8 8 7 7 8 8 8 8 8 8
7 5 7 7 8 8 6 6 5 4 6 5 3 5 6 3 5 6 3 1 -2 -3 0 4 5 5 11 18 17 14 13 13 18 19 18 22 23 22 19 15 14 14 13 13 12 10 10 10 8 9 12 12 10 9 9 10 10 10 9 8 10 10 9 9 10 10 11 11 11 11 10 10 10 9 9 9 8 9 8 7 7 7 7 7 7 7
11 9 7 6 7 8 11 16 18 13 8 6 3 3 6 5 5 6 5 5 7 7 10 18 19 13 17 26 23 19 19 19 17 13 17 26 26 22 18 10 9 14 15 13 12 11 9 9 10 9 9 11 10 9 10 10 10 10 9 9 9 10 10 9 9 9 10 10 11 11 11 10 10 10 10 10 9 8 8 8 7 6 6 6 7 7
9 6 3 5 9 9 12 18 22 21 17 18 18 14 14 16 18 18 18 23 27 23 24 30 26 15 15 23 23 22 22 20 18 14 7 5 9 15 20 15 9 7 7 8 11 12 9 8 9 10 9 11 11 10 10 10 9 9 9 10 9 10 10 10 9 9 9 10 10 10 11 10 9 9 10 10 9 9 8 7 7 7 6 6 6 6
18 19 8 5 16 18 17 15 11 13 14 16 19 22 22 20 19 21 22 22 16 11 18 24 18 13 14 17 16 12 6 3 10 14 5 -4 0 5 12 21 22 15 8 7 11 14 12 9 8 10 10 11 12 11 10 10 10 9 10 11 11 10 11 11 10 9 9 9 9 9 9 9 9 8 8 9 9 9 8 7 7 7 6 6 6 6
18 24 12 4 16 19 13 9 5 6 8 6 9 15 16 13 11 12 12 8 4 5 16 18 11 11 12 12 15 10 3 5 9 11 12 10 8 7 10 13 12 12 10 6 7 9 10 10 9 11 12 12 13 13 11 10 9 9 10 12 11 11 11 11 11 11 10 9 9 9 8 9 9 9 8 8 8 8 8 8 8 7 7 6 6 6
9 11 8 3 6 7 6 7 6 9 11 9 12 15 13 10 9 8 6 5 6 5 9 17 14 7 5 9 18 12 3 11 15 12 13 11 7 11 15 7 -4 -1 5 4 4 5 6 8 8 8 10 11 11 11 11 11 10 10 10 11 10 11 10 10 10 10 10 10 9 9 8 8 9 9 9 9 8 9 8 9 9 8 8 7 6 6
6 4 5 7 10 14 17 15 11 12 14 12 14 14 10 10 9 8 8 6 9 7 6 14 13 7 6 6 12 5 -6 1 8 6 5 0 1 8 11 7 1 2 6 7 7 7 6 5 4 3 3 5 7 8 10 11 12 12 11 11 11 11 10 9 9 9 9 9 9 9 9 9 9 10 10 11 10 10 10 10 10 10 10 9 9 8
3 4 4 10 17 17 13 13 15 15 13 9 9 9 8 11 11 11 14 13 15 13 5 3 2 4 9 11 19 19 6 0 1 6 13 8 3 7 6 2 1 6 8 5 4 7 10 9 6 3 1 1 2 2 3 5 7 10 10 10 12 11 11 10 9 9 10 9 9 10 9 9 9 10 10 11 11 11 11 10 10 10 9 9 9 9
7 13 10 11 14 7 4 12 16 13 11 5 4 5 2 3 5 7 10 10 7 4 1 3 4 4 7 9 20 28 18 4 -6 -9 1 9 8 4 1 -4 -2 7 9 4 6 11 12 12 11 10 9 7 7 5 3 3 3 6 8 9 10 10 11 12 11 9 9 9 9 9 9 8 8 8 9 8 8 9 8 7 7 8 8 6 5 4
7 10 9 11 11 7 8 11 3 -2 6 8 8 9 3 1 7 8 7 7 6 3 4 9 6 1 1 -5 -2 10 11 7 4 -13 -19 -3 3 -5 -6 -2 1 8 8 6 14 17 15 15 17 20 21 19 20 17 12 11 9 7 6 7 8 8 8 11 11 9 9 10 9 9 8 7 6 6 6 5 5 7 7 6 5 6 7 7 7 5
6 4 5 4 2 6 11 12 9 8 13 13 6 4 4 6 8 7 6 7 8 8 9 11 6 6 12 9 4 7 4 6 12 6 3 17 18 5 6 10 8 12 14 11 12 9 8 11 12 13 15 15 18 21 17 14 14 12 7 4 5 7 6 7 9 7 6 7 7 8 7 6 6 6 6 7 6 7 8 8 7 6 7 7 7 8
9 13 16 6 1 5 4 3 7 5 3 6 2 2 10 9 2 2 3 -2 -3 -1 -1 -0 0 3 8 8 4 4 8 13 12 11 17 24 19 11 13 17 11 9 11 11 11 5 1 6 10 9 10 10 12 18 18 11 10 14 14 10 7 6 5 5 8 8 6 6 6 6 6 4 5 5 5 7 7 6 6 6 6 5 5 6 6 6
4 9 11 5 4 5 -1 -0 3 -3 -5 2 3 4 11 9 3 4 6 3 0 -2 -1 1 5 9 6 3 5 7 11 13 9 8 9 5 5 6 6 9 10 9 8 7 11 10 -2 -4 4 6 4 4 4 9 11 8 8 12 15 16 13 11 7 3 6 8 6 6 7 8 8 6 6 6 4 4 3 3 4 5 6 7 6 7 7 6
-2 1 -1 -0 3 3 3 5 5 3 3 5 6 7 9 8 5 -2 -5 1 -1 -4 1 7 13 17 11 7 10 10 7 6 6 9 4 -4 -1 0 -6 -9 -4 5 11 10 13 17 6 -7 -3 4 3 1 -1 1 5 3 3 8 12 15 17 17 15 10 11 12 7 6 7 8 10 8 8 8 6 6 5 4 6 6 6 7 8 8 8 8
-4 -2 -0 2 2 4 7 6 6 9 7 5 8 10 7 3 0 -5 -3 8 9 3 4 5 7 9 1 1 8 8 8 12 12 7 1 -2 -0 4 5 -1 -3 0 3 3 4 6 5 -1 -2 6 7 -1 -6 3 11 1 -3 10 15 12 10 12 15 14 15 17 14 12 11 10 11 11 11 12 12 12 11 8 8 8 8 8 8 9 9 8
3 4 8 8 4 5 4 3 8 10 7 7 7 6 5 2 1 1 6 16 17 11 9 8 7 6 5 15 25 17 9 11 9 2 2 7 9 13 13 4 2 4 3 7 6 1 4 8 5 1 -4 -7 -4 7 13 1 -3 12 12 3 2 5 8 9 10 15 19 18 17 14 13 13 12 12 11 10 10 9 8 7 7 8 7 8 9 8
9 10 11 8 7 10 6 4 7 9 12 16 11 9 13 10 8 5 2 7 9 7 7 4 2 5 6 10 12 4 -1 2 2 1 3 6 5 3 2 -2 2 9 11 16 13 3 4 11 10 -2 -10 -1 5 5 7 -1 -2 12 8 -3 1 6 10 13 11 11 12 10 9 9 9 10 9 8 7 7 7 7 7 5 5 6 6 8 9 9
8 8 8 5 5 5 0 -1 3 7 8 5 0 3 6 4 4 2 -2 1 0 -4 -3 -4 -1 4 -4 -9 -2 1 3 4 4 4 2 0 0 1 3 6 8 8 7 7 3 -2 -2 4 4 -4 -4 7 6 2 3 -8 -5 16 14 1 4 7 7 12 12 6 3 1 2 4 5 6 6 7 6 6 5 4 4 6 7 9 10 10 10 10
5 4 6 8 7 5 3 3 8 11 9 5 5 6 5 4 7 6 5 7 2 2 8 6 7 10 -0 -2 9 11 10 11 9 9 8 6 10 11 10 14 15 12 9 5 3 4 4 5 7 6 8 9 4 2 -1 -8 3 17 5 -5 4 7 4 8 10 4 1 5 8 9 8 7 7 7 5 3 4 5 7 10 11 11 12 11 11 11
8 6 6 8 8 8 7 5 5 6 6 7 8 7 6 8 10 12 15 13 7 10 15 7 6 15 14 7 6 6 8 8 2 1 6 7 6 3 2 7 11 10 8 7 9 11 9 7 8 8 6 4 4 2 -4 1 12 6 -10 -8 5 10 9 9 9 4 1 3 4 2 1 2 3 3 3 4 6 8 10 11 11 11 12 12 12 12
15 15 12 11 11 11 9 6 5 5 4 5 6 6 7 6 6 9 8 3 3 4 4 1 1 11 12 -2 -7 -0 3 -0 -4 -2 2 4 4 3 2 3 3 1 -0 1 4 5 5 5 5 6 6 4 4 -1 -7 0 5 -1 0 7 10 8 1 -2 8 13 7 5 6 5 4 3 3 3 4 6 7 9 9 8 10 11 11 11 11 11
13 12 13 16 17 15 14 12 11 11 10 9 5 2 5 8 9 9 2 -0 5 5 2 5 5 9 12 4 -1 3 3 1 3 4 4 5 6 6 3 1 2 1 -1 -1 2 2 1 1 1 4 7 3 -3 -3 3 5 1 3 6 3 4 6 -3 1 18 18 7 6 9 10 7 2 2 4 6 8 8 8 8 9 10 11 10 10 10 11
10 9 11 15 15 11 8 9 11 13 14 12 7 5 9 12 11 9 4 6 11 7 3 6 7 8 14 13 7 4 2 4 6 5 6 5 4 4 3 3 5 6 5 5 7 7 6 6 3 -0 -0 -3 -11 -7 6 7 3 5 1 -6 -2 1 2 16 24 9 1 3 3 4 3 -2 1 7 8 8 8 7 8 9 10 9 8 9 9 10
11 9 8 9 12 11 10 11 12 12 13 13 11 11 14 13 10 8 9 13 15 10 7 11 11 8 10 13 11 6 4 7 9 9 9 9 8 8 8 9 9 9 10 11 11 9 7 8 10 6 6 4 -3 -6 -1 3 5 8 4 -0 -3 -7 4 22 15 -1 3 5 -1 -0 -2 -5 4 12 9 6 7 8 8 8 7 7 6 6 9 9
8 7 8 9 11 10 10 13 12 10 13 14 12 11 11 11 11 13 16 17 15 12 12 14 13 10 10 12 13 12 9 7 8 10 11 11 11 11 11 12 12 12 13 13 12 11 10 9 9 8 8 8 8 6 3 2 4 5 6 11 8 -1 5 19 12 3 9 12 6 4 3 6 13 13 8 8 8 7 6 6 7 7 6 7 11 11
7 8 11 11 11 9 10 14 14 12 15 17 12 8 8 10 13 13 12 10 10 12 13 11 10 13 13 10 10 12 11 9 9 10 11 11 11 12 13 12 12 11 9 8 9 11 12 11 10 9 8 7 7 8 7 6 5 2 2 6 9 6 3 10 23 25 15 10 10 8 9 15 15 10 8 9 7 5 4 6 8 5 4 9 12 8
10 12 13 11 10 10 9 11 12 11 13 14 10 7 10 12 13 10 7 6 8 11 11 10 10 13 14 11 9 12 13 13 11 9 9 10 11 11 12 13 15 13 10 11 13 15 17 17 14 13 14 13 10 6 8 10 10 10 8 -0 -0 6 1 -2 16 33 22 7 12 20 18 13 9 7 9 8 6 6 5 5 6 3 3 11 12 2
12 11 11 11 10 9 9 11 13 12 10 10 11 13 13 10 9 10 9 9 11 12 14 15 12 10 12 12 11 12 13 13 12 11 13 17 19 21 21 19 18 17 17 19 19 21 24 24 19 15 15 17 16 12 12 11 10 13 16 10 4 6 8 -1 -6 9 19 7 7 20 17 8 7 7 7 8 7 6 6 5 5 2 5 12 9 -3
12 13 13 13 12 11 9 7 8 8 8 9 12 12 8 6 8 11 12 12 13 14 15 15 14 14 15 15 16 15 13 12 10 12 15 19 21 22 17 12 12 15 18 19 19 17 16 16 14 10 8 13 17 18 21 18 13 11 11 16 12 3 14 20 -2 -5 16 11 3 16 15 5 7 7 6 10 8 5 6 5 3 3 5 9 4 -4
15 13 12 11 12 13 12 9 10 11 7 3 5 7 10 14 17 17 16 17 16 15 13 11 12 13 12 13 13 10 9 9 10 14 18 15 11 9 9 11 13 12 9 7 9 11 8 9 11 5 4 12 13 15 22 23 20 18 15 19 18 1 2 14 4 4 19 6 -12 -2 5 2 7 8 6 7 6 6 6 4 3 5 4 4 1 -2
15 14 16 16 14 13 15 12 10 11 10 10 18 22 19 18 17 14 12 11 9 9 10 8 8 8 9 11 9 5 7 9 9 17 22 11 3 7 10 10 7 5 7 6 7 13 13 9 12 15 15 13 3 0 14 24 22 18 16 20 22 12 3 4 5 7 10 5 -2 -7 -5 7 14 9 6 7 6 6 6 4 5 5 1 1 1 -0
11 11 15 18 13 10 13 12 8 11 16 17 17 14 7 5 8 10 11 11 10 9 8 4 3 5 7 9 7 8 13 9 3 11 15 9 13 20 17 15 16 19 24 22 16 21 29 26 24 29 31 27 19 12 16 27 25 17 17 22 22 18 8 2 6 -0 -10 0 10 -7 -10 15 21 9 7 9 7 6 5 5 7 5 1 1 0 -0
17 15 12 11 11 11 13 13 11 14 18 12 8 11 13 12 12 13 12 12 11 10 7 2 2 6 9 9 10 13 12 2 -3 8 14 12 20 26 21 17 19 19 24 27 18 15 27 33 25 24 30 31 26 16 14 25 29 21 20 25 25 26 18 5 7 7 -4 -6 -11 -27 -18 11 14 7 12 10 6 8 6 6 8 4 1 2 1 1
17 23 17 8 7 10 9 7 6 9 12 10 10 13 12 7 7 9 10 10 9 8 5 2 5 10 11 7 7 11 11 5 6 17 22 15 13 21 25 19 16 17 16 18 18 12 13 19 14 12 22 24 17 17 21 26 26 19 17 22 26 29 26 13 7 9 6 3 -1 -7 2 11 6 6 12 8 6 9 7 6 7 3 2 3 1 1
12 17 13 4 4 7 4 0 1 4 8 10 10 9 8 11 12 9 5 3 3 2 3 6 8 9 7 5 9 14 13 12 15 20 24 22 13 14 23 21 18 26 25 17 18 18 15 14 13 11 18 22 22 22 20 22 27 24 17 22 29 28 23 17 12 9 9 14 16 12 10 8 5 8 9 8 9 8 6 6 5 2 3 2 -0 2
11 10 10 13 15 12 5 0 1 5 5 3 2 2 5 7 6 3 2 2 4 8 10 8 4 5 9 13 16 15 9 9 15 18 21 27 20 10 17 16 2 7 26 26 17 17 17 12 10 14 20 24 26 26 26 28 27 18 16 26 32 28 22 18 13 13 19 23 19 11 6 4 7 10 9 9 9 6 6 7 4 2 3 3 5 11
11 9 11 14 14 12 8 2 2 5 3 3 6 7 5 3 1 2 5 4 4 6 4 0 2 10 17 15 8 8 11 16 21 20 19 26 24 14 19 21 -4 -13 11 25 18 17 17 9 10 22 25 22 24 27 29 27 17 17 36 45 30 17 20 22 15 11 13 13 7 4 3 4 8 12 12 10 8 8 7 6 4 4 6 8 12 15
12 11 9 9 11 13 8 3 5 9 7 10 15 12 10 12 11 8 7 4 3 5 5 8 13 12 9 9 10 14 18 20 20 18 17 24 27 23 26 27 8 -7 4 20 20 16 13 14 23 24 17 20 27 22 21 33 43 47 44 29 15 15 18 17 15 10 5 4 3 4 8 13 16 15 11 9 8 7 6 4 5 8 9 10 12 12
11 10 6 9 12 7 0 3 13 16 11 9 9 7 8 12 11 7 8 8 6 7 8 12 17 15 11 16 26 25 19 21 26 21 16 15 16 20 28 29 18 8 9 16 19 17 19 27 28 15 11 22 25 19 27 38 37 29 15 1 4 11 3 -3 3 5 3 8 14 16 19 19 17 12 9 9 8 6 6 8 9 9 10 10 11 10
9 7 5 8 9 5 4 10 15 14 11 7 4 5 6 4 2 2 4 5 6 10 13 15 23 29 23 18 26 26 16 20 31 27 16 9 7 14 25 23 17 17 16 15 22 25 22 20 14 17 40 49 24 12 28 24 1 1 14 11 5 5 1 1 4 4 10 20 23 21 19 14 10 10 10 8 8 8 9 9 9 9 10 10 10 12
10 12 13 14 14 13 15 16 14 13 11 7 5 6 5 4 8 10 10 11 12 12 14 17 23 26 18 10 19 25 17 18 28 25 15 12 13 18 19 14 14 19 18 21 32 30 24 29 27 21 38 54 36 21 28 21 2 4 11 5 5 13 16 12 11 14 20 22 16 13 11 9 9 10 8 7 8 8 7 8 8 10 12 12 15 17
15 14 15 18 18 15 13 14 15 13 9 9 11 12 12 14 16 15 15 19 19 13 12 16 17 15 9 6 10 14 15 23 29 19 8 11 18 19 16 13 16 19 19 24 28 15 16 45 48 13 -4 13 26 27 26 19 7 5 8 10 14 17 14 14 18 19 15 10 8 9 9 8 9 7 5 7 7 5 7 10 11 13 15 17 18 18
26 20 17 17 16 15 15 18 20 17 15 18 20 19 20 21 22 25 28 28 23 19 18 19 16 10 6 6 6 3 9 24 25 9 1 11 20 20 16 15 18 21 22 24 18 8 14 35 38 16 -0 2 10 19 24 19 11 10 15 17 13 9 11 15 13 8 6 7 9 9 7 7 7 6 6 7 8 10 13 14 14 17 18 16 15 13
27 23 21 19 17 18 20 21 23 24 25 26 25 20 16 16 20 29 30 20 12 15 16 13 12 15 19 19 13 8 14 24 21 7 5 17 23 20 16 16 17 21 27 26 16 12 19 26 27 26 21 12 11 20 24 18 14 13 11 9 10 9 8 6 4 6 10 10 7 7 7 6 6 7 9 11 13 15 16 16 17 17 15 13 12 11
16 16 15 14 14 17 19 17 15 18 23 26 25 16 5 5 15 22 19 10 8 15 19 8 -6 0 18 24 17 14 20 21 14 10 15 22 22 17 14 17 18 20 26 25 11 1 6 16 20 22 17 7 8 17 18 12 10 9 5 5 8 5 2 3 7 9 7 6 6 6 5 5 7 10 12 13 15 16 15 16 16 13 11 11 11 10
Height
5750 5751 5752 5753 5753 5754 5754 5754 5755 5755 5757 5758 5758 5758 5759 5762 5762 5762 5762 5762 5761 5760 5760 5761 5763 5766 5770 5769 5767 5766 5764 5764 5766 5769 5771 5770 5768 5767 5768 5769 5769 5769 5768 5767 5768 5769 5772 5773 5776 5780 5782 5783 5781 5779 5781 5782 5781 5781 5780 5780 5780 5780 5779 5779 5779 5780 5781 5781 5782 5783 5783 5784 5784 5784 5784 5785 5785 5786 5787 5787 5788 5788 5789 5789 5791 5794
5748 5749 5750 5750 5750 5751 5751 5751 5753 5754 5755 5756 5757 5757 5758 5760 5761 5759 5759 5759 5759 5758 5758 5759 5761 5762 5765 5768 5768 5765 5761 5757 5760 5765 5768 5769 5767 5764 5765 5766 5766 5765 5764 5763 5763 5765 5767 5768 5771 5775 5778 5779 5777 5775 5777 5778 5778 5777 5777 5777 5777 5777 5776 5776 5776 5777 5777 5778 5778 5780 5780 5780 5781 5781 5781 5782 5782 5783 5784 5784 5785 5786 5786 5787 5788 5790
5745 5747 5747 5746 5746 5749 5749 5748 5750 5752 5753 5754 5754 5755 5756 5757 5759 5757 5756 5755 5755 5756 5756 5757 5759 5758 5759 5764 5766 5765 5762 5756 5753 5759 5765 5766 5765 5763 5762 5762 5762 5762 5761 5760 5759 5760 5762 5764 5767 5771 5774 5775 5773 5771 5773 5774 5774 5774 5774 5774 5774 5774 5773 5772 5773 5773 5774 5775 5775 5776 5777 5777 5778 5778 5779 5779 5779 5780 5781 5781 5782 5782 5783 5784 5785 5786
5742 5744 5743 5743 5744 5746 5747 5746 5747 5749 5750 5751 5751 5752 5753 5754 5756 5756 5753 5751 5751 5752 5754 5755 5755 5755 5756 5760 5761 5761 5760 5756 5752 5754 5760 5762 5762 5761 5759 5758 5758 5758 5759 5758 5757 5755 5756 5758 5763 5767 5770 5771 5769 5768 5769 5770 5771 5771 5771 5771 5771 5771 5770 5769 5769 5770 5771 5771 5772 5773 5773 5774 5774 5775 5776 5776 5777 5777 5778 5778 5779 5780 5780 5781 5782 5783
5739 5740 5740 5741 5742 5744 5743 5743 5744 5746 5747 5748 5749 5750 5751 5752 5753 5753 5750 5748 5748 5748 5750 5752 5751 5752 5755 5756 5757 5756 5756 5755 5752 5751 5755 5759 5759 5758 5757 5755 5754 5755 5755 5754 5754 5753 5751 5753 5758 5762 5765 5766 5766 5764 5764 5766 5767 5768 5768 5768 5768 5768 5767 5767 5766 5767 5767 5768 5769 5769 5770 5771 5771 5771 5772 5773 5774 5774 5775 5775 5776 5777 5777 5778 5779 5780
5736 5736 5737 5738 5739 5740 5740 5740 5741 5743 5743 5744 5746 5747 5748 5749 5750 5749 5747 5746 5745 5746 5748 5748 5745 5747 5752 5753 5752 5753 5752 5752 5751 5749 5750 5754 5756 5755 5754 5753 5751 5752 5752 5751 5751 5750 5748 5749 5753 5758 5760 5762 5762 5761 5761 5762 5762 5764 5765 5765 5764 5764 5764 5764 5764 5764 5764 5765 5766 5767 5767 5768 5768 5769 5769 5770 5771 5771 5772 5773 5773 5774 5774 5775 5776 5777
5732 5733 5734 5735 5736 5737 5737 5738 5739 5740 5740 5741 5743 5744 5744 5745 5746 5745 5745 5743 5741 5742 5744 5744 5742 5742 5747 5749 5748 5748 5748 5748 5748 5747 5747 5749 5751 5752 5751 5750 5749 5749 5749 5749 5749 5748 5746 5746 5749 5753 5756 5757 5757 5757 5758 5758 5758 5759 5761 5761 5761 5761 5761 5761 5761 5761 5761 5762 5763 5764 5764 5765 5765 5766 5767 5767 5768 5768 5769 5770 5770 5771 5771 5772 5773 5774
5730 5730 5730 5732 5733 5733 5734 5735 5736 5736 5737 5737 5739 5740 5740 5740 5741 5741 5741 5739 5738 5738 5739 5740 5740 5739 5742 5745 5744 5743 5743 5743 5745 5745 5745 5744 5745 5747 5748 5748 5748 5747 5747 5747 5747 5746 5744 5744 5746 5748 5751 5753 5753 5753 5754 5755 5754 5755 5757 5758 5758 5758 5757 5757 5758 5759 5758 5759 5759 5761 5761 5762 5763 5763 5764 5764 5765 5765 5766 5767 5767 5768 5768 5769 5770 5771
5727 5727 5727 5728 5729 5730 5731 5732 5732 5732 5732 5733 5734 5735 5736 5736 5736 5736 5736 5736 5735 5735 5735 5737 5738 5736 5738 5741 5740 5739 5739 5739 5740 5742 5742 5742 5741 5743 5745 5745 5746 5746 5746 5745 5745 5744 5743 5743 5743 5745 5747 5749 5749 5749 5750 5751 5751 5752 5753 5754 5754 5755 5754 5754 5755 5755 5755 5755 5756 5757 5758 5759 5759 5760 5761 5761 5762 5763 5763 5764 5764 5765 5765 5766 5766 5767
5725 5724 5723 5725 5727 5727 5729 5729 5729 5729 5729 5730 5730 5731 5732 5732 5732 5732 5732 5733 5732 5731 5733 5736 5735 5733 5734 5738 5737 5736 5737 5736 5736 5736 5737 5738 5739 5740 5741 5742 5742 5742 5743 5743 5742 5741 5741 5741 5742 5742 5743 5744 5745 5745 5745 5746 5747 5748 5750 5751 5751 5751 5751 5751 5751 5752 5752 5752 5752 5753 5754 5755 5756 5757 5758 5758 5759 5760 5760 5761 5761 5762 5762 5762 5763 5763
5723 5722 5721 5723 5724 5725 5727 5726 5726 5725 5725 5726 5727 5728 5729 5729 5729 5729 5730 5730 5729 5730 5732 5734 5733 5729 5730 5734 5735 5734 5735 5733 5733 5733 5733 5734 5735 5737 5739 5738 5738 5738 5738 5739 5739 5738 5738 5738 5739 5740 5740 5741 5741 5741 5741 5742 5743 5744 5746 5747 5747 5748 5748 5748 5748 5749 5749 5749 5749 5750 5750 5751 5752 5753 5755 5755 5756 5756 5757 5758 5758 5759 5759 5759 5759 5760
5721 5720 5720 5722 5723 5723 5724 5724 5723 5722 5722 5723 5724 5725 5726 5726 5726 5726 5727 5727 5726 5728 5730 5729 5729 5727 5726 5730 5733 5733 5732 5732 5731 5731 5731 5731 5732 5734 5736 5736 5735 5735 5735 5736 5736 5736 5736 5735 5736 5737 5738 5738 5738 5738 5739 5739 5739 5740 5742 5743 5744 5744 5744 5744 5744 5745 5746 5746 5747 5747 5747 5748 5749 5750 5751 5752 5753 5753 5754 5754 5755 5755 5756 5756 5756 5757
5718 5718 5718 5719 5721 5721 5721 5721 5721 5721 5721 5721 5722 5722 5723 5723 5723 5723 5723 5723 5723 5725 5726 5726 5725 5724 5723 5726 5730 5730 5730 5730 5731 5731 5730 5730 5729 5730 5731 5732 5732 5732 5733 5733 5733 5734 5734 5734 5734 5735 5735 5736 5736 5736 5735 5735 5736 5737 5738 5739 5740 5740 5741 5741 5741 5741 5742 5743 5744 5744 5744 5744 5745 5746 5747 5748 5749 5750 5750 5751 5752 5752 5753 5753 5753 5754
5716 5717 5716 5717 5718 5718 5719 5719 5719 5719 5719 5719 5720 5720 5720 5720 5720 5720 5720 5720 5720 5721 5722 5722 5722 5722 5722 5725 5727 5729 5728 5728 5729 5729 5729 5729 5729 5728 5726 5727 5727 5727 5727 5728 5729 5729 5730 5731 5731 5732 5732 5733 5733 5733 5732 5732 5732 5733 5734 5735 5736 5737 5738 5738 5738 5738 5739 5739 5740 5741 5741 5741 5742 5743 5743 5745 5745 5746 5747 5747 5748 5749 5749 5750 5750 5751
5713 5713 5714 5715 5715 5714 5715 5717 5717 5717 5716 5716 5717 5717 5717 5718 5718 5718 5718 5718 5718 5718 5718 5719 5719 5720 5722 5723 5725 5726 5726 5726 5726 5726 5726 5725 5727 5726 5725 5723 5723 5723 5722 5722 5723 5723 5724 5726 5727 5728 5728 5729 5729 5729 5729 5729 5729 5729 5729 5730 5731 5733 5734 5735 5735 5735 5735 5736 5736 5737 5737 5737 5738 5739 5739 5740 5741 5742 5742 5743 5744 5745 5745 5746 5747 5747
5710 5711 5712 5713 5713 5712 5713 5715 5715 5715 5714 5714 5714 5714 5714 5715 5715 5715 5715 5716 5715 5715 5716 5717 5718 5718 5720 5721 5724 5725 5724 5724 5724 5724 5724 5723 5723 5723 5722 5721 5721 5720 5720 5718 5718 5717 5717 5718 5721 5723 5724 5724 5725 5725 5725 5724 5724 5725 5725 5726 5727 5728 5730 5731 5732 5731 5731 5732 5733 5733 5733 5734 5734 5735 5735 5736 5737 5737 5738 5739 5740 5740 5741 5742 5742 5743
5706 5707 5709 5710 5710 5710 5712 5712 5711 5712 5713 5712 5711 5712 5712 5713 5712 5711 5711 5712 5712 5711 5713 5715 5716 5717 5718 5719 5721 5722 5722 5723 5722 5722 5722 5721 5720 5719 5719 5719 5718 5718 5718 5716 5714 5713 5713 5713 5715 5717 5719 5720 5720 5720 5721 5720 5720 5720 5721 5722 5723 5724 5726 5727 5727 5727 5728 5728 5728 5729 5729 5730 5730 5731 5731 5732 5733 5733 5733 5734 5735 5735 5736 5737 5737 5738
5702 5704 5706 5707 5707 5708 5710 5709 5708 5708 5709 5710 5711 5711 5711 5711 5710 5709 5708 5708 5708 5708 5709 5712 5713 5714 5715 5716 5718 5719 5718 5718 5717 5716 5716 5716 5716 5715 5714 5715 5715 5715 5715 5714 5713 5711 5710 5710 5711 5712 5714 5715 5716 5716 5717 5717 5716 5716 5717 5718 5718 5719 5721 5722 5723 5723 5723 5724 5724 5724 5725 5725 5726 5726 5727 5727 5728 5728 5729 5729 5730 5730 5731 5732 5732 5732
5699 5701 5704 5704 5705 5705 5705 5705 5705 5705 5706 5707 5709 5709 5709 5709 5708 5707 5706 5705 5705 5704 5705 5707 5708 5710 5713 5713 5715 5715 5713 5712 5712 5711 5710 5710 5711 5711 5709 5709 5710 5711 5711 5711 5711 5709 5707 5707 5708 5709 5710 5711 5712 5713 5713 5713 5713 5713 5714 5714 5713 5714 5716 5717 5718 5719 5719 5719 5719 5720 5720 5721 5721 5722 5722 5723 5723 5723 5724 5724 5725 5725 5726 5726 5726 5727
5696 5697 5699 5701 5703 5702 5701 5701 5702 5703 5703 5704 5705 5705 5704 5704 5704 5703 5703 5702 5701 5700 5701 5702 5703 5707 5709 5710 5710 5709 5707 5706 5707 5707 5706 5706 5707 5707 5706 5705 5705 5705 5706 5707 5708 5706 5704 5704 5704 5705 5706 5707 5708 5709 5710 5710 5710 5710 5710 5709 5709 5709 5711 5713 5714 5714 5714 5714 5715 5715 5715 5716 5716 5717 5717 5718 5718 5718 5719 5719 5719 5720 5720 5720 5721 5721
5693 5692 5693 5696 5699 5698 5698 5699 5700 5700 5700 5699 5700 5700 5700 5700 5699 5699 5698 5699 5698 5696 5697 5697 5698 5703 5706 5706 5705 5703 5701 5701 5703 5703 5702 5702 5703 5703 5702 5702 5702 5701 5703 5704 5704 5703 5702 5700 5701 5702 5702 5703 5705 5705 5706 5707 5707 5707 5706 5705 5704 5705 5707 5708 5709 5710 5710 5710 5710 5710 5711 5711 5711 5712 5712 5713 5713 5713 5714 5714 5714 5714 5714 5715 5715 5715
5689 5688 5688 5691 5693 5694 5694 5696 5696 5695 5695 5695 5695 5695 5696 5695 5694 5693 5693 5694 5694 5692 5692 5692 5692 5698 5703 5702 5700 5698 5696 5697 5698 5699 5699 5697 5698 5699 5698 5698 5698 5699 5700 5700 5699 5700 5700 5698 5697 5698 5698 5699 5700 5701 5702 5703 5703 5703 5703 5702 5702 5702 5703 5704 5705 5705 5705 5705 5705 5706 5706 5706 5707 5707 5707 5707 5708 5708 5708 5708 5709 5709 5709 5709 5709 5709
5684 5684 5684 5685 5686 5687 5689 5690 5691 5691 5691 5691 5691 5691 5691 5690 5689 5688 5687 5689 5689 5687 5689 5689 5687 5694 5699 5697 5694 5693 5693 5694 5694 5694 5694 5693 5693 5694 5695 5694 5695 5695 5696 5695 5695 5695 5696 5695 5694 5694 5694 5694 5695 5696 5697 5698 5699 5700 5700 5699 5698 5698 5699 5700 5700 5701 5701 5700 5701 5701 5702 5702 5702 5702 5703 5703 5703 5703 5703 5703 5703 5703 5703 5703 5703 5703
5679 5678 5678 5679 5679 5681 5683 5684 5686 5687 5686 5685 5685 5685 5685 5684 5683 5682 5681 5682 5682 5682 5684 5683 5682 5689 5695 5692 5690 5691 5690 5689 5688 5688 5688 5688 5690 5691 5691 5691 5691 5691 5691 5691 5690 5691 5692 5691 5690 5690 5690 5690 5690 5690 5691 5693 5694 5695 5696 5696 5695 5695 5695 5696 5696 5696 5696 5696 5697 5697 5697 5698 5698 5698 5698 5698 5698 5698 5698 5698 5698 5698 5697 5697 5696 5696
5673 5672 5672 5673 5673 5675 5677 5679 5680 5680 5679 5678 5679 5680 5680 5680 5678 5676 5676 5675 5675 5677 5679 5676 5676 5685 5690 5687 5686 5686 5685 5683 5682 5682 5682 5683 5684 5686 5686 5686 5686 5686 5686 5685 5685 5686 5687 5687 5686 5686 5686 5685 5685 5685 5684 5685 5688 5690 5691 5691 5692 5691 5691 5692 5692 5692 5692 5692 5692 5693 5693 5693 5693 5693 5693 5693 5693 5693 5693 5693 5693 5692 5692 5691 5690 5690
5666 5666 5667 5667 5668 5669 5671 5673 5674 5674 5673 5673 5674 5675 5676 5676 5674 5672 5671 5670 5670 5672 5673 5670 5671 5678 5683 5682 5680 5680 5680 5679 5677 5676 5677 5677 5677 5678 5679 5680 5680 5680 5681 5681 5680 5680 5681 5681 5681 5682 5682 5681 5680 5680 5679 5680 5681 5683 5684 5685 5686 5686 5687 5688 5688 5688 5687 5687 5687 5688 5688 5688 5688 5688 5688 5688 5688 5688 5688 5688 5687 5687 5686 5685 5685 5684
5661 5661 5662 5662 5662 5663 5665 5666 5667 5667 5667 5668 5669 5669 5670 5671 5670 5668 5665 5665 5666 5666 5666 5667 5667 5669 5675 5677 5676 5675 5673 5671 5670 5670 5670 5671 5671 5672 5672 5673 5673 5674 5675 5676 5675 5675 5675 5675 5676 5676 5677 5676 5675 5674 5675 5675 5676 5677 5678 5679 5679 5680 5681 5682 5683 5683 5682 5682 5682 5682 5682 5683 5683 5683 5682 5682 5682 5682 5682 5682 5682 5681 5680 5680 5679 5679
5655 5655 5655 5656 5657 5658 5659 5659 5659 5659 5660 5661 5662 5663 5665 5665 5663 5660 5659 5660 5661 5658 5658 5663 5662 5661 5667 5673 5673 5670 5664 5661 5661 5662 5662 5663 5664 5665 5665 5666 5667 5668 5669 5669 5669 5669 5670 5669 5669 5669 5670 5670 5669 5668 5670 5670 5671 5671 5672 5673 5673 5674 5674 5675 5676 5676 5676 5676 5677 5676 5676 5677 5677 5677 5677 5677 5677 5677 5677 5676 5676 5675 5675 5674 5674 5673
5648 5647 5647 5649 5651 5653 5652 5652 5651 5651 5652 5654 5656 5658 5660 5658 5655 5654 5654 5655 5655 5651 5651 5657 5657 5655 5660 5667 5666 5661 5655 5653 5653 5653 5654 5655 5656 5657 5658 5659 5660 5661 5661 5661 5662 5662 5663 5662 5662 5662 5662 5662 5662 5662 5663 5664 5664 5665 5666 5667 5667 5667 5668 5669 5669 5669 5669 5670 5670 5670 5670 5671 5671 5671 5671 5671 5671 5671 5671 5671 5670 5670 5669 5669 5669 5668
5641 5640 5639 5640 5644 5646 5646 5645 5645 5645 5646 5648 5651 5653 5651 5649 5648 5648 5649 5650 5649 5647 5647 5650 5650 5649 5654 5657 5655 5652 5649 5647 5646 5645 5646 5648 5649 5651 5651 5651 5650 5651 5652 5653 5654 5655 5656 5656 5655 5655 5655 5654 5654 5654 5655 5656 5657 5658 5659 5661 5660 5660 5661 5663 5663 5662 5661 5662 5663 5663 5664 5665 5665 5666 5665 5665 5665 5665 5665 5665 5665 5665 5664 5664 5663 5663
5637 5636 5635 5634 5635 5637 5638 5637 5639 5639 5639 5642 5645 5645 5642 5641 5642 5643 5644 5644 5643 5642 5642 5642 5640 5643 5648 5648 5644 5644 5644 5641 5639 5639 5640 5641 5642 5643 5643 5642 5642 5642 5642 5642 5644 5645 5647 5648 5648 5648 5647 5647 5647 5646 5647 5649 5650 5651 5652 5654 5654 5653 5655 5656 5656 5655 5654 5655 5656 5656 5657 5658 5659 5659 5659 5659 5659 5659 5659 5659 5659 5659 5659 5658 5658 5657
5631 5631 5632 5630 5628 5630 5630 5630 5632 5633 5633 5636 5638 5636 5635 5635 5637 5637 5637 5637 5636 5635 5635 5634 5633 5636 5641 5638 5634 5634 5636 5635 5634 5634 5634 5635 5635 5634 5634 5633 5632 5631 5632 5633 5634 5636 5637 5639 5640 5639 5639 5639 5639 5639 5639 5641 5642 5643 5645 5648 5648 5647 5647 5649 5650 5649 5646 5646 5648 5650 5651 5652 5653 5653 5653 5653 5654 5654 5653 5653 5653 5653 5653 5652 5652 5651
5626 5626 5627 5625 5623 5625 5623 5622 5624 5626 5625 5628 5630 5630 5630 5629 5628 5629 5630 5630 5629 5627 5627 5627 5627 5628 5630 5629 5626 5626 5629 5630 5629 5628 5628 5627 5626 5625 5624 5623 5621 5622 5623 5624 5626 5627 5627 5628 5629 5629 5629 5630 5630 5630 5630 5632 5634 5636 5638 5641 5643 5641 5641 5642 5644 5644 5640 5640 5642 5644 5645 5646 5647 5647 5647 5647 5647 5648 5647 5647 5647 5647 5647 5646 5646 5646
5621 5621 5621 5619 5618 5619 5618 5616 5617 5618 5619 5621 5623 5623 5622 5620 5620 5621 5623 5623 5622 5620 5618 5619 5620 5620 5620 5620 5619 5619 5620 5623 5623 5622 5620 5618 5616 5615 5613 5612 5612 5613 5615 5616 5616 5616 5616 5616 5617 5618 5619 5620 5621 5621 5620 5622 5625 5627 5629 5632 5635 5635 5634 5635 5638 5639 5637 5635 5637 5639 5639 5640 5641 5640 5641 5641 5641 5641 5641 5641 5641 5641 5641 5640 5640 5639
5615 5615 5615 5614 5612 5613 5614 5611 5608 5611 5616 5618 5615 5612 5613 5613 5614 5614 5616 5616 5614 5612 5611 5612 5612 5613 5612 5612 5611 5610 5611 5614 5616 5616 5613 5609 5606 5604 5603 5604 5605 5606 5607 5608 5607 5607 5607 5607 5608 5609 5611 5611 5611 5611 5611 5612 5616 5618 5619 5623 5626 5627 5628 5629 5631 5634 5634 5631 5631 5633 5634 5634 5634 5633 5634 5634 5635 5635 5635 5635 5635 5635 5635 5634 5634 5633
5609 5608 5608 5608 5607 5607 5607 5605 5601 5604 5611 5611 5606 5604 5607 5608 5608 5607 5608 5609 5607 5605 5605 5605 5605 5606 5605 5604 5604 5602 5603 5605 5608 5609 5606 5600 5597 5596 5596 5598 5599 5599 5599 5599 5598 5598 5598 5598 5599 5601 5602 5603 5603 5603 5604 5604 5606 5609 5611 5614 5617 5619 5621 5623 5625 5628 5629 5625 5626 5628 5628 5627 5627 5627 5627 5628 5628 5629 5629 5629 5629 5629 5629 5628 5627 5625
5602 5602 5601 5601 5601 5601 5600 5599 5597 5598 5603 5604 5600 5599 5601 5602 5601 5600 5601 5601 5600 5599 5599 5599 5598 5599 5598 5598 5597 5595 5595 5596 5599 5602 5599 5592 5590 5591 5590 5590 5590 5590 5590 5591 5590 5590 5589 5590 5591 5592 5593 5594 5594 5595 5596 5596 5598 5600 5602 5605 5608 5611 5614 5616 5619 5623 5622 5619 5620 5623 5623 5621 5621 5620 5621 5622 5622 5623 5623 5623 5623 5623 5623 5621 5619 5617
5597 5597 5596 5594 5595 5595 5593 5593 5592 5592 5596 5597 5594 5593 5594 5594 5594 5593 5593 5594 5593 5592 5592 5592 5592 5592 5591 5590 5589 5588 5587 5587 5589 5592 5590 5585 5584 5584 5582 5582 5581 5581 5581 5582 5581 5581 5581 5582 5583 5583 5584 5585 5586 5587 5588 5588 5589 5591 5594 5597 5599 5603 5606 5609 5613 5617 5616 5613 5615 5618 5616 5614 5614 5614 5615 5616 5617 5617 5618 5618 5617 5617 5616 5614 5612 5610
5590 5590 5589 5587 5588 5588 5587 5586 5586 5586 5589 5590 5587 5586 5587 5587 5586 5586 5586 5586 5587 5585 5584 5584 5585 5584 5584 5583 5582 5581 5580 5579 5580 5583 5581 5578 5576 5576 5574 5574 5574 5573 5574 5574 5573 5573 5574 5574 5574 5575 5575 5577 5578 5579 5579 5580 5582 5584 5587 5589 5591 5595 5599 5603 5607 5609 5608 5609 5611 5612 5609 5608 5608 5609 5610 5611 5612 5612 5612 5612 5611 5610 5608 5606 5604 5603
5586 5585 5583 5581 5581 5582 5581 5581 5581 5581 5582 5582 5581 5580 5581 5580 5580 5579 5578 5578 5579 5578 5577 5577 5577 5577 5576 5575 5574 5573 5572 5570 5571 5573 5572 5570 5570 5569 5567 5567 5568 5568 5568 5567 5566 5567 5568 5568 5567 5567 5568 5569 5571 5571 5571 5572 5574 5577 5579 5582 5584 5587 5592 5598 5601 5601 5602 5605 5607 5604 5602 5602 5604 5605 5605 5606 5606 5607 5606 5606 5605 5603 5601 5599 5597 5596
5582 5581 5579 5577 5577 5578 5577 5577 5577 5577 5576 5575 5576 5576 5575 5573 5573 5572 5570 5570 5572 5572 5570 5569 5569 5569 5568 5567 5565 5565 5565 5563 5562 5563 5563 5562 5562 5562 5561 5561 5562 5562 5561 5561 5561 5561 5562 5561 5560 5559 5560 5562 5563 5563 5564 5565 5568 5570 5574 5577 5579 5582 5587 5591 5593 5595 5597 5599 5599 5597 5596 5598 5599 5600 5600 5600 5601 5600 5600 5599 5598 5597 5594 5592 5590 5588
5575 5575 5575 5574 5573 5573 5573 5572 5572 5573 5571 5569 5569 5570 5569 5568 5567 5566 5565 5565 5565 5565 5564 5563 5562 5561 5561 5559 5558 5557 5558 5557 5556 5555 5555 5555 5555 5555 5555 5556 5556 5556 5555 5555 5555 5555 5555 5556 5554 5553 5553 5555 5555 5556 5558 5560 5563 5566 5569 5572 5575 5577 5579 5582 5586 5589 5590 5590 5590 5591 5592 5594 5595 5595 5595 5595 5595 5595 5594 5593 5592 5590 5588 5586 5583 5581
5568 5568 5568 5568 5567 5567 5567 5567 5567 5566 5565 5564 5563 5562 5562 5562 5561 5560 5560 5561 5560 5559 5557 5556 5556 5555 5554 5554 5553 5551 5551 5551 5550 5550 5549 5549 5548 5549 5549 5550 5551 5551 5551 5550 5549 5549 5549 5549 5549 5548 5548 5550 5550 5551 5553 5556 5558 5561 5563 5566 5569 5572 5573 5576 5580 5582 5583 5583 5585 5587 5588 5589 5590 5590 5590 5590 5589 5589 5588 5587 5586 5584 5582 5579 5576 5574
5562 5561 5560 5560 5559 5559 5560 5560 5560 5559 5558 5559 5558 5556 5556 5555 5555 5554 5554 5554 5554 5552 5551 5551 5551 5550 5549 5548 5547 5546 5546 5545 5544 5544 5544 5544 5543 5543 5544 5545 5545 5545 5546 5545 5544 5543 5543 5544 5545 5544 5544 5545 5547 5548 5550 5551 5553 5555 5559 5563 5566 5568 5570 5572 5574 5576 5577 5579 5581 5583 5584 5585 5585 5585 5585 5584 5584 5583 5582 5581 5579 5578 5575 5572 5569 5567
5556 5553 5551 5551 5552 5551 5552 5553 5553 5554 5554 5553 5551 5550 5548 5547 5547 5547 5547 5547 5547 5546 5545 5545 5545 5544 5543 5542 5541 5541 5541 5540 5539 5539 5539 5539 5539 5538 5539 5540 5540 5540 5541 5541 5540 5539 5539 5540 5541 5541 5540 5542 5544 5546 5547 5548 5550 5552 5556 5560 5563 5565 5566 5566 5568 5570 5573 5575 5577 5578 5580 5580 5580 5580 5580 5580 5579 5578 5576 5575 5573 5571 5568 5565 5562 5560
5548 5545 5543 5544 5544 5545 5546 5548 5548 5548 5547 5546 5544 5542 5540 5539 5539 5539 5540 5540 5540 5540 5539 5539 5538 5538 5537 5536 5536 5536 5536 5535 5534 5533 5534 5534 5534 5534 5534 5535 5535 5536 5536 5537 5536 5536 5536 5537 5538 5538 5537 5538 5541 5543 5545 5547 5549 5551 5554 5556 5559 5560 5560 5560 5563 5566 5569 5571 5573 5575 5575 5576 5576 5576 5576 5575 5574 5572 5570 5569 5566 5564 5561 5559 5556 5554
5540 5537 5537 5539 5539 5538 5539 5542 5541 5539 5538 5538 5537 5535 5534 5533 5533 5533 5533 5534 5534 5533 5533 5533 5532 5532 5532 5531 5531 5531 5531 5530 5529 5529 5530 5530 5530 5530 5530 5531 5531 5532 5533 5534 5534 5533 5533 5534 5535 5536 5535 5535 5537 5540 5543 5545 5548 5550 5551 5553 5554 5554 5555 5557 5561 5564 5566 5568 5570 5571 5571 5572 5572 5571 5571 5570 5568 5567 5565 5562 5560 5558 5555 5552 5550 5547
5532 5530 5531 5532 5531 5529 5529 5532 5532 5531 5530 5530 5529 5528 5528 5527 5526 5526 5526 5527 5528 5527 5527 5528 5527 5527 5527 5527 5527 5527 5527 5526 5525 5525 5526 5526 5526 5526 5527 5527 5528 5529 5530 5531 5532 5532 5532 5532 5533 5534 5534 5534 5535 5537 5540 5543 5546 5548 5549 5550 5550 5551 5553 5556 5559 5561 5563 5565 5566 5567 5568 5568 5568 5567 5566 5564 5563 5561 5559 5557 5554 5552 5549 5546 5544 5542
5525 5524 5524 5523 5521 5520 5521 5523 5522 5522 5523 5523 5522 5521 5521 5519 5518 5519 5520 5521 5521 5521 5522 5523 5523 5522 5523 5523 5523 5523 5523 5522 5522 5522 5522 5522 5522 5523 5524 5524 5525 5526 5527 5528 5530 5530 5531 5531 5532 5532 5532 5533 5534 5536 5539 5542 5544 5546 5547 5547 5548 5550 5552 5555 5557 5558 5560 5562 5563 5564 5564 5564 5563 5562 5560 5559 5558 5556 5554 5551 5549 5546 5543 5541 5539 5536
5517 5517 5517 5514 5512 5512 5514 5515 5513 5512 5514 5517 5516 5515 5515 5513 5512 5514 5515 5515 5516 5517 5517 5518 5518 5518 5518 5518 5519 5519 5519 5519 5518 5519 5518 5518 5519 5520 5520 5521 5522 5523 5524 5525 5527 5528 5529 5530 5531 5531 5531 5531 5533 5535 5538 5540 5542 5543 5544 5545 5547 5549 5550 5552 5554 5556 5557 5558 5559 5560 5560 5559 5559 5557 5555 5554 5553 5552 5549 5546 5544 5541 5539 5536 5534 5531
5512 5511 5510 5507 5505 5505 5507 5508 5506 5504 5506 5509 5511 5510 5509 5508 5508 5509 5509 5510 5511 5511 5512 5513 5514 5514 5514 5514 5514 5515 5515 5515 5515 5515 5515 5515 5516 5516 5517 5518 5519 5520 5521 5522 5524 5526 5527 5529 5530 5530 5529 5530 5532 5534 5536 5538 5539 5541 5542 5543 5544 5547 5548 5550 5552 5553 5554 5555 5556 5556 5555 5555 5554 5553 5551 5549 5548 5547 5544 5541 5539 5537 5535 5533 5530 5526